TimeCDT,TemperatureF,Dew PointF,Humidity,Sea Level PressureIn,VisibilityMPH,Wind Direction,Wind SpeedMPH,Gust SpeedMPH,PrecipitationIn,Events,Conditions,WindDirDegrees,DateUTC
12:54 AM,45.0,41.0,86,29.88,9.0,Calm,Calm,-,N/A,,Overcast,0,2014-04-07 05:54:00
1:54 AM,43.0,41.0,93,29.87,7.0,Calm,Calm,-,N/A,,Overcast,0,2014-04-07 06:54:00
2:54 AM,41.0,39.0,93,29.84,7.0,Calm,Calm,-,N/A,,Mostly Cloudy,0,2014-04-07 07:54:00
3:54 AM,37.0,36.0,96,29.82,5.0,Calm,Calm,-,N/A,,Clear,0,2014-04-07 08:54:00
4:54 AM,36.0,36.0,100,29.82,4.0,Calm,Calm,-,N/A,,Overcast,0,2014-04-07 09:54:00
5:29 AM,36.0,36.0,100,29.81,2.5,Calm,Calm,-,N/A,,Mostly Cloudy,0,2014-04-07 10:29:00
5:37 AM,36.0,35.1,97,29.81,5.0,Calm,Calm,-,N/A,,Mostly Cloudy,0,2014-04-07 10:37:00
5:49 AM,33.8,33.8,100,29.81,1.8,Calm,Calm,-,N/A,,Overcast,0,2014-04-07 10:49:00
5:54 AM,35.1,35.1,100,29.83,1.8,Calm,Calm,-,N/A,,Overcast,0,2014-04-07 10:54:00
5:59 AM,35.1,35.1,100,29.81,3.0,Calm,Calm,-,N/A,,Overcast,0,2014-04-07 10:59:00
6:54 AM,35.1,35.1,100,29.83,7.0,Calm,Calm,-,N/A,,Overcast,0,2014-04-07 11:54:00
7:54 AM,37.9,35.1,89,29.83,7.0,Calm,Calm,-,N/A,,Overcast,0,2014-04-07 12:54:00
8:54 AM,44.1,39.0,82,29.82,8.0,North,-9999.0,-,N/A,,Overcast,0,2014-04-07 13:54:00
9:54 AM,48.0,39.0,71,29.81,10.0,Calm,Calm,-,N/A,,Overcast,0,2014-04-07 14:54:00
10:54 AM,52.0,37.0,57,29.80,10.0,Calm,Calm,-,N/A,,Overcast,0,2014-04-07 15:54:00
11:54 AM,53.1,39.9,61,29.79,10.0,NW,8.1,-,0.00,,Overcast,320,2014-04-07 16:54:00
12:54 PM,57.0,39.9,53,29.77,10.0,NW,12.7,-,N/A,,Mostly Cloudy,320,2014-04-07 17:54:00
1:54 PM,55.9,42.1,60,29.75,10.0,NNW,13.8,-,N/A,,Mostly Cloudy,340,2014-04-07 18:54:00
2:54 PM,57.2,42.8,59,29.73,10.0,NNW,12.7,18.4,N/A,,Mostly Cloudy,340,2014-04-07 19:54:00
3:54 PM,59.0,39.0,48,29.73,10.0,NNW,11.5,-,N/A,,Partly Cloudy,330,2014-04-07 20:54:00
4:54 PM,59.0,43.0,55,29.71,10.0,WNW,4.6,-,N/A,,Scattered Clouds,300,2014-04-07 21:54:00
5:54 PM,55.0,41.0,59,29.72,10.0,North,17.3,-,N/A,,Mostly Cloudy,10,2014-04-07 22:54:00
6:54 PM,53.1,45.0,74,29.73,10.0,NNW,6.9,-,0.02,,Overcast,330,2014-04-07 23:54:00
7:54 PM,46.9,44.1,90,29.75,10.0,West,4.6,-,N/A,,Clear,270,2014-04-08 00:54:00
8:54 PM,43.0,42.1,97,29.77,6.0,Calm,Calm,-,N/A,,Clear,0,2014-04-08 01:54:00
9:18 PM,41.0,41.0,100,29.76,1.5,NNW,3.5,-,N/A,,Clear,330,2014-04-08 02:18:00
9:28 PM,37.9,37.9,100,29.76,0.5,NW,6.9,-,N/A,Fog,Fog,310,2014-04-08 02:28:00
9:36 PM,39.9,37.9,93,29.77,2.0,NW,8.1,-,N/A,,Clear,320,2014-04-08 02:36:00
9:43 PM,39.9,37.9,93,29.77,10.0,NW,8.1,-,N/A,,Clear,320,2014-04-08 02:43:00
9:54 PM,42.1,37.9,85,29.78,10.0,NW,8.1,-,N/A,,Clear,310,2014-04-08 02:54:00
10:54 PM,39.9,37.0,89,29.78,10.0,NW,8.1,-,N/A,,Clear,310,2014-04-08 03:54:00
11:54 PM,39.0,36.0,89,29.79,10.0,NW,8.1,-,N/A,,Clear,310,2014-04-08 04:54:00